SL-8 DEB, 21171

Orbit data source: Space-Track

SL-8 DEB, 21171 is space debris in LEO originally from a launch on Tue, 12 Feb 1991 UTC launched from the Plesetsk Missile And Space Complex (PKMTR). Debris objects in space refer to the collection of defunct objects orbiting the Earth. Examples of debris include non-operational satellites, rocket bodies, and fragments generated from explosions, collisions, or faulty payload assembly.

Loading next visibility...
Identifier
21171, 1991-009AJ
Orbit
LEO
Country
Flag of CISCIS
Related business
Manufacturer
Unknown
Mission
Spacecraft
Bus & Motor
Unknown
Mass
Unknown
Launch date (UTC)
1991-02-12 (35 years ago)
Launch vehicle
Unknown
Launch site
Plesetsk Missile And Space Complex (PKMTR)
Object type
Payload
Rocket body
Debris
Shape & HBR
Unknown shape, 0.3 m
Radar Cross Section
Medium (>0.1 m² and <1 m²)

Expand to show TLE details & history
Last TLE update: 2 days ago

TLE from 2 days ago
0 SL-8 DEB
1 21171U 91009AJ  26171.35311640 -.00000027  00000-0 -96571-4 0  9994
2 21171  73.9532  36.9433 0193875 323.7335 211.2866 12.21759093574012
Epoch: 2026-06-20T08:28Z
TLE epoch observation values (Epoch: 2026-06-20T08:28:29.256Z)
Latitude
5.80414°
Longitude
179.58499°
Altitude
1,719.403 km
Speed
6.959 km/s
True Right ascension
14h 21m 06s
True Declination
5° 46' 25"
Sunlit
Object was in daylight at epoch
Visualization orbit readout
Latitude
Unknown
Longitude
Unknown
Altitude
Unknown
Speed
Unknown
Apparent Right ascension
Unknown
Apparent Declination
Unknown
Sunlit
N/A
Visualization observer readout
Local Sidereal Time
03:40:33
Azimuth
Unknown
Elevation
Unknown
Doppler factor
Unknown
Orbital elements
Apogee altitude
1,737.103 km
Perigee altitude
1,428.419 km
Semi-major axis
7,960.898 km
Eccentricity
0.01939
Inclination
73.9532°
RAAN
36.9433°
Arg. of periapsis
323.7335°
True anomaly
210.15636°
Mean anomaly
211.2866°
Eccentric anomaly
210.71916°
Mean motion
3.05562 °/min
Orbital period
117.82 mins
BSTAR
-0.000096571
Loading maneuver chart data...
Computing Atmospheric mass density...
Loading historical data...
Loading historical data...
Loading historical data...
Loading historical data...
Loading historical data...
Loading historical data...
Loading historical data...

Documentation

Showing up to 5 results
|